EST,Max TemperatureF,Mean TemperatureF,Min TemperatureF,Max Dew PointF,MeanDew PointF,Min DewpointF,Max Humidity, Mean Humidity, Min Humidity, Max Sea Level PressureIn, Mean Sea Level PressureIn, Min Sea Level PressureIn, Max VisibilityMiles, Mean VisibilityMiles, Min VisibilityMiles, Max Wind SpeedMPH, Mean Wind SpeedMPH, Max Gust SpeedMPH,PrecipitationIn, CloudCover, Events, WindDirDegrees
2011-2-1,39,29,19,36,27,17,100,94,86,30.22,30.02,29.80,6,3,0,14,7,,0.31,8,Fog-Rain,155
2011-2-2,39,28,17,36,23,10,100,83,59,30.15,29.78,29.56,10,4,0,33,17,53,0.27,8,Fog-Rain-Snow,235
2011-2-3,21,16,12,12,8,4,92,74,48,30.45,30.30,30.07,10,5,1,26,16,38,0.00,6,Snow,273
2011-2-4,30,21,12,11,8,3,84,59,33,30.35,30.21,30.01,10,10,10,14,9,,0.00,1,,236
2011-2-5,34,30,26,31,26,6,100,84,35,29.97,29.58,29.38,10,6,0,34,10,53,0.20,8,Fog-Rain-Snow,217
2011-2-6,28,26,24,22,21,19,88,82,74,30.03,29.94,29.75,10,8,4,20,12,31,0.00,8,Snow,255
2011-2-7,37,32,27,32,29,22,100,87,75,30.00,29.78,29.60,10,6,0,12,6,,0.11,8,Fog-Rain-Snow,206
2011-2-8,30,18,6,28,12,-6,100,77,51,30.26,29.87,29.59,10,3,0,26,16,40,0.03,7,Fog-Snow,290
2011-2-9,18,12,5,5,0,-5,76,59,43,30.29,30.18,30.06,10,10,10,17,11,24,0.00,2,,249
2011-2-10,14,8,3,5,-3,-6,78,61,43,30.15,30.06,29.94,10,8,2,17,13,25,0.00,3,Snow,269
2011-2-11,26,18,10,4,0,-5,59,45,32,30.15,30.08,29.98,10,10,10,16,11,24,0.00,1,,226
2011-2-12,27,23,19,19,16,-1,93,74,35,30.13,29.92,29.79,10,4,0,26,16,41,0.00,7,Fog-Snow,261
2011-2-13,45,34,24,23,19,12,69,51,39,30.09,29.92,29.74,10,10,10,24,13,37,0.00,4,,235
2011-2-14,45,34,21,31,25,10,96,73,37,30.18,29.78,29.55,10,6,1,29,21,50,0.04,6,Snow,275
2011-2-15,32,23,14,9,5,0,77,50,28,30.44,30.35,30.20,10,10,10,23,12,33,0.00,0,,273
2011-2-16,48,38,28,31,19,3,56,40,32,30.30,30.18,30.11,20,10,10,15,10,25,0.00,5,Rain,210
2011-2-17,55,50,45,33,31,28,63,48,38,30.17,30.05,29.89,10,10,10,15,9,23,0.00,2,,206
2011-2-18,60,50,37,45,31,10,77,50,20,29.93,29.87,29.82,10,10,10,25,19,47,0.00,5,,257
2011-2-19,37,29,21,14,12,10,71,51,39,30.29,30.07,29.91,10,10,10,30,23,45,0.00,3,,288
2011-2-20,37,27,17,29,18,4,93,72,25,30.31,30.07,29.74,10,8,1,21,11,29,0.06,5,Rain-Snow,188
2011-2-21,35,25,15,36,26,12,100,93,84,29.83,29.69,29.59,10,2,0,16,7,25,0.82,8,Fog-Rain-Snow,56
2011-2-22,27,18,10,16,11,6,92,78,55,30.25,29.99,29.75,10,6,1,13,6,,0.06,7,Snow,65
2011-2-23,34,24,14,22,15,7,81,69,55,30.34,30.26,30.13,10,9,2,9,2,,0.38,4,,185
2011-2-24,43,34,26,34,30,22,100,83,51,30.19,29.95,29.77,10,5,0,9,6,,0.12,7,Fog-Rain,133
2011-2-25,42,33,23,41,27,18,100,90,80,30.14,29.67,29.28,10,3,0,28,13,38,0.71,8,Fog-Rain-Snow,283
2011-2-26,35,27,19,25,19,16,88,76,59,30.21,30.05,29.83,10,10,9,17,8,18,0.00,6,,228
2011-2-27,51,40,28,39,29,25,86,71,54,30.00,29.91,29.80,10,9,4,15,10,24,0.07,7,Rain-Snow,228
2011-2-28,57,41,24,52,38,18,100,90,64,30.10,29.73,29.53,10,6,0,29,16,43,0.70,8,Fog-Rain-Snow-Thunderstorm,294